• In Uzbekistan
  • List of Countries
  • For 7 days
  • Water Temperature
  • Satellite Maps
  • Weather Map
  • Weather Widgets
  • user-avatar
    Login

    Hourly Weather Starye Vyselki

    Today, 21 August, Tuesday

    Time Temperature Precipitation Wind Pressure Humidity
    00:00 +18°C° 0 mm 2 mps 738 mmHg 80%
    01:00 +18°C° 0 mm 3 mps 738 mmHg 82%
    02:00 +17°C° 0 mm 3 mps 738 mmHg 84%
    03:00 +17°C° 0 mm 3 mps 738 mmHg 85%
    04:00 +17°C° 0 mm 3 mps 738 mmHg 86%
    05:00 +17°C° 0 mm 3 mps 737 mmHg 86%
    06:00 +17°C° 0 mm 4 mps 737 mmHg 87%
    07:00 +19°C° 0 mm 5 mps 737 mmHg 80%
    08:00 +21°C° 0 mm 5 mps 737 mmHg 74%
    09:00 +23°C° 0 mm 6 mps 737 mmHg 67%
    10:00 +24°C° 0 mm 7 mps 736 mmHg 64%
    11:00 +26°C° 0 mm 7 mps 736 mmHg 60%
    12:00 +27°C° 0 mm 8 mps 736 mmHg 56%
    13:00 +27°C° 0.7 mm 8 mps 735 mmHg 59%
    14:00 +26°C° 0.7 mm 8 mps 735 mmHg 61%
    15:00 +26°C° 0.7 mm 8 mps 734 mmHg 64%
    16:00 +24°C° 1.2 mm 7 mps 734 mmHg 69%
    17:00 +23°C° 1.2 mm 7 mps 734 mmHg 74%
    18:00 +22°C° 1.2 mm 6 mps 734 mmHg 79%
    19:00 +20°C° 0.3 mm 5 mps 734 mmHg 82%
    20:00 +19°C° 0.3 mm 4 mps 735 mmHg 85%
    21:00 +18°C° 0.3 mm 4 mps 735 mmHg 88%
    22:00 +17°C° 0 mm 4 mps 735 mmHg 87%
    23:00 +14°C° 0 mm 3 mps 736 mmHg 86%

    Tomorrow, 22 August, Wednesday

    Time Temperature Precipitation Wind Pressure Humidity
    00:00 +13°C° 0 mm 3 mps 736 mmHg 85%
    01:00 +13°C° 0 mm 3 mps 736 mmHg 86%
    02:00 +12°C° 0 mm 3 mps 737 mmHg 86%
    03:00 +11°C° 0 mm 3 mps 737 mmHg 87%
    04:00 +11°C° 0 mm 3 mps 738 mmHg 87%
    05:00 +11°C° 0 mm 3 mps 738 mmHg 88%
    06:00 +10°C° 0 mm 3 mps 738 mmHg 89%
    07:00 +12°C° 0 mm 4 mps 739 mmHg 82%
    08:00 +13°C° 0 mm 4 mps 739 mmHg 75%
    09:00 +14°C° 0 mm 5 mps 739 mmHg 68%
    10:00 +15°C° 0 mm 5 mps 739 mmHg 64%
    11:00 +16°C° 0 mm 5 mps 740 mmHg 59%
    12:00 +17°C° 0 mm 6 mps 740 mmHg 54%
    13:00 +19°C° 0 mm 6 mps 740 mmHg 53%
    14:00 +19°C° 0 mm 6 mps 740 mmHg 52%
    15:00 +19°C° 0 mm 6 mps 741 mmHg 51%
    16:00 +19°C° 0 mm 5 mps 741 mmHg 54%
    17:00 +19°C° 0 mm 4 mps 741 mmHg 58%
    18:00 +18°C° 0 mm 3 mps 741 mmHg 62%
    19:00 +17°C° 0 mm 3 mps 742 mmHg 64%
    20:00 +14°C° 0 mm 3 mps 742 mmHg 67%
    21:00 +13°C° 0 mm 3 mps 743 mmHg 70%
    22:00 +12°C° 0 mm 3 mps 743 mmHg 72%
    23:00 +11°C° 0 mm 3 mps 744 mmHg 74%

    Day after tomorrow, 23 August, Thursday

    Time Temperature Precipitation Wind Pressure Humidity
    00:00 +10°C° 0 mm 3 mps 744 mmHg 75%
    01:00 +10°C° 0 mm 2 mps 744 mmHg 76%
    02:00 +9°C° 0 mm 2 mps 744 mmHg 77%
    03:00 +9°C° 0 mm 2 mps 745 mmHg 79%
    04:00 +9°C° 0 mm 2 mps 745 mmHg 80%
    05:00 +9°C° 0 mm 2 mps 745 mmHg 81%
    06:00 +8°C° 0 mm 2 mps 745 mmHg 82%
    07:00 +10°C° 0 mm 2 mps 746 mmHg 76%
    08:00 +13°C° 0 mm 2 mps 746 mmHg 70%
    09:00 +15°C° 0 mm 1 mps 746 mmHg 64%
    10:00 +16°C° 0 mm 1 mps 746 mmHg 58%
    11:00 +18°C° 0 mm 1 mps 746 mmHg 53%
    12:00 +20°C° 0 mm 1 mps 746 mmHg 47%
    13:00 +20°C° 0 mm 1 mps 746 mmHg 46%
    14:00 +21°C° 0 mm 1 mps 746 mmHg 45%
    15:00 +21°C° 0 mm 1 mps 746 mmHg 43%
    16:00 +21°C° 0 mm 1 mps 745 mmHg 46%
    17:00 +21°C° 0 mm 1 mps 745 mmHg 49%
    18:00 +20°C° 0 mm 1 mps 745 mmHg 52%
    19:00 +17°C° 0 mm 0 mps 745 mmHg 55%
    20:00 +15°C° 0 mm 0 mps 745 mmHg 58%
    21:00 +13°C° 0 mm 0 mps 745 mmHg 61%
    22:00 +13°C° 0 mm 0 mps 745 mmHg 62%
    23:00 +13°C° 0 mm 1 mps 745 mmHg 64%

    24 August, Friday

    Time Temperature Precipitation Wind Pressure Humidity
    00:00 +13°C° 0 mm 1 mps 745 mmHg 65%
    01:00 +13°C° 0 mm 1 mps 745 mmHg 66%
    02:00 +12°C° 0 mm 1 mps 745 mmHg 67%
    03:00 +12°C° 0 mm 1 mps 745 mmHg 69%
    04:00 +12°C° 0 mm 1 mps 745 mmHg 70%
    05:00 +11°C° 0 mm 1 mps 745 mmHg 71%
    06:00 +11°C° 0 mm 1 mps 745 mmHg 73%
    07:00 +13°C° 0 mm 1 mps 745 mmHg 68%
    08:00 +15°C° 0 mm 1 mps 745 mmHg 63%
    09:00 +17°C° 0 mm 2 mps 745 mmHg 58%
    10:00 +18°C° 0 mm 2 mps 745 mmHg 54%
    11:00 +20°C° 0 mm 2 mps 745 mmHg 51%
    12:00 +21°C° 0 mm 2 mps 745 mmHg 47%
    13:00 +21°C° 0 mm 2 mps 745 mmHg 46%
    14:00 +23°C° 0 mm 2 mps 744 mmHg 45%
    15:00 +23°C° 0 mm 2 mps 744 mmHg 43%
    16:00 +23°C° 0 mm 2 mps 744 mmHg 47%
    17:00 +23°C° 0 mm 2 mps 744 mmHg 51%
    18:00 +22°C° 0 mm 1 mps 743 mmHg 54%
    19:00 +20°C° 0 mm 1 mps 743 mmHg 57%
    20:00 +19°C° 0 mm 1 mps 743 mmHg 60%
    21:00 +16°C° 0 mm 1 mps 743 mmHg 62%
    22:00 +15°C° 0 mm 2 mps 743 mmHg 64%
    23:00 +15°C° 0 mm 2 mps 743 mmHg 65%

    25 August, Saturday

    Time Temperature Precipitation Wind Pressure Humidity
    00:00 +15°C° 0 mm 2 mps 743 mmHg 66%
    01:00 +14°C° 0 mm 2 mps 743 mmHg 67%
    02:00 +14°C° 0 mm 2 mps 743 mmHg 68%
    03:00 +14°C° 0 mm 2 mps 743 mmHg 69%
    04:00 +13°C° 0 mm 2 mps 743 mmHg 70%
    05:00 +13°C° 0 mm 2 mps 743 mmHg 71%
    06:00 +13°C° 0 mm 2 mps 743 mmHg 72%
    07:00 +15°C° 0 mm 2 mps 743 mmHg 68%
    08:00 +17°C° 0 mm 3 mps 743 mmHg 64%
    09:00 +19°C° 0 mm 3 mps 744 mmHg 60%
    10:00 +20°C° 0 mm 3 mps 744 mmHg 55%
    11:00 +22°C° 0 mm 3 mps 743 mmHg 51%
    12:00 +23°C° 0 mm 4 mps 743 mmHg 46%
    13:00 +23°C° 0 mm 4 mps 743 mmHg 45%
    14:00 +25°C° 0 mm 4 mps 743 mmHg 45%
    15:00 +25°C° 0 mm 4 mps 742 mmHg 44%
    16:00 +24°C° 0 mm 3 mps 742 mmHg 48%
    17:00 +24°C° 0 mm 3 mps 742 mmHg 52%
    18:00 +23°C° 0 mm 2 mps 742 mmHg 56%
    19:00 +20°C° 0 mm 2 mps 742 mmHg 58%
    20:00 +19°C° 0 mm 2 mps 742 mmHg 60%
    21:00 +17°C° 0 mm 2 mps 742 mmHg 62%
    22:00 +16°C° 0 mm 2 mps 742 mmHg 63%
    23:00 +16°C° 0 mm 2 mps 742 mmHg 63%

    26 August, Sunday

    Time Temperature Precipitation Wind Pressure Humidity
    00:00 +15°C° 0 mm 2 mps 742 mmHg 64%
    01:00 +15°C° 0 mm 2 mps 742 mmHg 65%
    02:00 +15°C° 0 mm 2 mps 742 mmHg 66%
    03:00 +14°C° 0 mm 2 mps 742 mmHg 67%
    04:00 +14°C° 0 mm 2 mps 742 mmHg 69%
    05:00 +13°C° 0 mm 3 mps 742 mmHg 71%
    06:00 +13°C° 0 mm 3 mps 742 mmHg 72%
    07:00 +16°C° 0 mm 3 mps 742 mmHg 68%
    08:00 +18°C° 0 mm 3 mps 743 mmHg 65%
    09:00 +20°C° 0 mm 3 mps 743 mmHg 61%
    10:00 +21°C° 0 mm 4 mps 743 mmHg 56%
    11:00 +23°C° 0 mm 4 mps 743 mmHg 52%
    12:00 +26°C° 0 mm 4 mps 743 mmHg 47%
    13:00 +26°C° 0 mm 4 mps 742 mmHg 46%
    14:00 +26°C° 0 mm 4 mps 742 mmHg 45%
    15:00 +27°C° 0 mm 4 mps 742 mmHg 44%
    16:00 +26°C° 0 mm 3 mps 742 mmHg 49%
    17:00 +26°C° 0 mm 3 mps 742 mmHg 54%
    18:00 +25°C° 0 mm 2 mps 742 mmHg 58%
    19:00 +22°C° 0 mm 3 mps 742 mmHg 61%
    20:00 +21°C° 0 mm 3 mps 742 mmHg 65%
    21:00 +19°C° 0 mm 3 mps 742 mmHg 68%
    22:00 +18°C° 0 mm 3 mps 742 mmHg 69%
    23:00 +18°C° 0 mm 3 mps 742 mmHg 70%
    Show more